(111651) = 2002 AM183

Discovered at Palomar on 2002-01-06 by NEAT.

Orbit

Orbit type: Main Belt

Note: WebGL enabled browser required.

epoch2024-03-31.0
epoch JD2460400.5
perihelion date2019-11-21.51147
perihelion JD2458809.01147
argument of perihelion (°)35.56165
ascending node (°)352.92611
inclination (°)4.61362
eccentricity0.1733887
perihelion distance (AU)2.2967543
Tisserand w.r.t. Jupiter3.3
ΔV w.r.t. Earth (km/sec)9.6
semimajor axis (AU)2.7785180
mean anomaly (°)338.67843
mean daily motion (°/day)0.21280610
aphelion distance (AU)3.260
period (years)4.63
P-vector [x]0.87868694
P-vector [y]0.41728869
P-vector [z]0.23190387
Q-vector [x]-0.47729565
Q-vector [y]0.77796442
Q-vector [z]0.40860766
absolute magnitude15.96
phase slope0.15
uncertainty0
referenceMPEC 2024-E02
observations used649
oppositions17
arc length (days)9371
first opposition used1998
last opposition used2023
residual rms (arc-secs)0.72
perturbers coarse indicatorM-v
perturbers precise indicator003Ek
first observation date used1998-03-05.0
last observation date used2023-10-31.0
computer nameMPCLINUX
JD of orbit computation2456966.856666
perihelion JD uncertainty (days)4.4520E-05
argument of perihelion uncertainty (°)2.6082E-05
ascending node uncertainty (°)2.3953E-05
inclination uncertainty (°)3.3172E-06
eccentricity uncertainty 2.7467E-08
perihelion distance uncertainty (AU)7.8839E-08
Minimum Orbit Intersection Distances (in AU)
for orbit epoch: 2460400.5, reference: E2024-E02
Mercury1.96481
Venus1.57661
Earth1.30337
Mars0.85544
Jupiter2.20106
Saturn6.29774
Uranus15.2768
Neptune27.4017

Observations

660 total observations over interval: 1998 03 05.37198 – 2023 10 31.222203
These data are available for download (format description).

Date (UT) J2000 RA J2000 Dec Magn Location Ref
1998 03 05.37198 10 32 31.50 +11 03 13.9 20.4 V 691 – Steward Observatory, Kitt Peak-Spacewatch MPS 54689
1998 03 05.39301 10 32 30.52 +11 03 18.7 19.8 V 691 – Steward Observatory, Kitt Peak-Spacewatch MPS 54689
1998 03 05.41431 10 32 29.29 +11 03 22.9 20.1 V 691 – Steward Observatory, Kitt Peak-Spacewatch MPS 54689
1998 03 20.28972 10 20 53.25 +11 48 01.2 20.9 V 691 – Steward Observatory, Kitt Peak-Spacewatch MPS 54689
1998 03 20.31133 10 20 52.31 +11 48 04.1 21.1 V 691 – Steward Observatory, Kitt Peak-Spacewatch MPS 54689
1998 03 20.33796 10 20 51.22 +11 48 07.6 21.1 V 691 – Steward Observatory, Kitt Peak-Spacewatch MPS 54689
1998 03 25.17828 10 17 48.81 +11 57 57.0 21.1 V 691 – Steward Observatory, Kitt Peak-Spacewatch MPS 80047
1998 03 25.19947 10 17 48.05 +11 57 59.3 20.7 V 691 – Steward Observatory, Kitt Peak-Spacewatch MPS 80047
1998 03 25.22089 10 17 47.27 +11 58 01.5 21.0 V 691 – Steward Observatory, Kitt Peak-Spacewatch MPS 80047
2001 12 09.31458 06 46 18.76 +30 21 12.9 19.3   704 – Lincoln Laboratory ETS, New Mexico MPS 54689
2001 12 09.32948 06 46 17.90 +30 21 14.0 19.6   704 – Lincoln Laboratory ETS, New Mexico MPS 54689
2001 12 09.34438 06 46 17.14 +30 21 16.4 19.5   704 – Lincoln Laboratory ETS, New Mexico MPS 54689
2001 12 09.35930 06 46 16.33 +30 21 18.1 19.3   704 – Lincoln Laboratory ETS, New Mexico MPS 54689
2001 12 09.37427 06 46 15.52 +30 21 20.2 19.9   704 – Lincoln Laboratory ETS, New Mexico MPS 54689
2001 12 17.32612 06 38 37.25 +30 33 32.5 19.9   704 – Lincoln Laboratory ETS, New Mexico MPS 54689
2001 12 17.35812 06 38 35.21 +30 33 34.6 19.7   704 – Lincoln Laboratory ETS, New Mexico MPS 54689
2001 12 17.37358 06 38 34.20 +30 33 35.6 19.4   704 – Lincoln Laboratory ETS, New Mexico MPS 54689
2002 01 06.21493 06 17 29.50 +30 35 16.3 20.4   644 – Palomar Mountain/NEAT MPS 55312
2002 01 06.23597 06 17 28.13 +30 35 15.2 20.0   644 – Palomar Mountain/NEAT MPS 55312
2002 01 06.25611 06 17 26.94 +30 35 13.9 19.9   644 – Palomar Mountain/NEAT MPS 55312
2002 01 08.25674 06 15 28.77 +30 32 58.3 20.0   704 – Lincoln Laboratory ETS, New Mexico MPS 55312
2002 01 08.27290 06 15 27.77 +30 32 57.2 20.0   704 – Lincoln Laboratory ETS, New Mexico MPS 55312
2002 01 08.29836 06 15 26.23 +30 32 54.4 19.7   704 – Lincoln Laboratory ETS, New Mexico MPS 55312
2003 03 10.36444 12 23 32.95 -03 34 56.8 21.3 V 291 – LPL/Spacewatch II MPS 103835
2003 03 10.39793 12 23 31.36 -03 34 49.7 21.3 V 291 – LPL/Spacewatch II MPS 103835
2003 03 10.42114 12 23 30.26 -03 34 44.8 21.2 V 291 – LPL/Spacewatch II MPS 103835
2003 04 29.17072 11 47 52.03 -00 33 57.5 21.9 V 691 – Steward Observatory, Kitt Peak-Spacewatch MPS 103835
2003 04 29.19824 11 47 51.39 -00 33 54.3 21.1 V 691 – Steward Observatory, Kitt Peak-Spacewatch MPS 103835
2003 04 29.22582 11 47 50.67 -00 33 51.1 21.5 V 691 – Steward Observatory, Kitt Peak-Spacewatch MPS 103835
2005 08 09.19942 00 27 44.19 +02 18 51.2 17.6 R 807 – Cerro Tololo Observatory, La Serena MPS 143813
2005 08 10.18231 00 27 45.84 +02 21 00.5   807 – Cerro Tololo Observatory, La Serena MPS 143813
2005 08 10.31686 00 27 45.72 +02 21 17.6   807 – Cerro Tololo Observatory, La Serena MPS 143813
2005 08 28.48668 00 23 31.71 +02 35 36.4 20.8   608 – Haleakala-AMOS MPS 140161
2005 08 28.49716 00 23 31.37 +02 35 36.1 20.0   608 – Haleakala-AMOS MPS 140161
2005 08 28.50831 00 23 30.99 +02 35 36.2 20.2   608 – Haleakala-AMOS MPS 140161
2005 08 29.25231 00 23 09.78 +02 35 10.1 19.1   704 – Lincoln Laboratory ETS, New Mexico MPS 140161
2005 08 29.26338 00 23 09.39 +02 35 11.0 19.4   704 – Lincoln Laboratory ETS, New Mexico MPS 140161
2005 08 29.27465 00 23 08.99 +02 35 08.8 19.4   704 – Lincoln Laboratory ETS, New Mexico MPS 140161
2005 08 29.29691 00 23 08.29 +02 35 09.9 19.4   704 – Lincoln Laboratory ETS, New Mexico MPS 140161
2005 08 31.03103 00 22 14.61 +02 33 50.3 18.6 R 185 – Observatoire Astronomique Jurassien-Vicques MPS 140161
2005 08 31.04405 00 22 14.20 +02 33 50.0 18.5 R 185 – Observatoire Astronomique Jurassien-Vicques MPS 140161
2005 08 31.05752 00 22 13.73 +02 33 49.2 18.5 R 185 – Observatoire Astronomique Jurassien-Vicques MPS 140161
2005 08 31.07081 00 22 13.28 +02 33 48.7 18.7 R 185 – Observatoire Astronomique Jurassien-Vicques MPS 140161
2005 08 31.36598 00 22 03.77 +02 33 34.4 19.3 V 691 – Steward Observatory, Kitt Peak-Spacewatch MPS 140161
2005 08 31.38345 00 22 03.16 +02 33 33.4 19.3 V 691 – Steward Observatory, Kitt Peak-Spacewatch MPS 140161
2005 08 31.40093 00 22 02.55 +02 33 32.5 19.2 V 691 – Steward Observatory, Kitt Peak-Spacewatch MPS 140161
2005 09 14.25465 00 12 31.60 +02 09 41.4 18.9 V 703 – Catalina Sky Survey MPS 141676
2005 09 14.26118 00 12 31.17 +02 09 39.5 18.9 V 703 – Catalina Sky Survey MPS 141676
2005 09 14.26775 00 12 30.92 +02 09 38.8 18.9 V 703 – Catalina Sky Survey MPS 141676
2005 09 14.27422 00 12 30.60 +02 09 38.4 18.7 V 703 – Catalina Sky Survey MPS 141676
2005 09 14.36896 00 12 25.86 +02 09 23.7 19.0 V 691 – Steward Observatory, Kitt Peak-Spacewatch MPS 141676
2005 09 14.38638 00 12 24.98 +02 09 21.0 19.1 V 691 – Steward Observatory, Kitt Peak-Spacewatch MPS 141676
2005 09 14.40377 00 12 24.10 +02 09 18.5 19.2 V 691 – Steward Observatory, Kitt Peak-Spacewatch MPS 141676
2005 09 23.25523 00 04 56.51 +01 45 31.5 17.8 R 644 – Palomar Mountain/NEAT MPS 143813
2005 09 23.30047 00 04 54.06 +01 45 23.7 17.8 R 644 – Palomar Mountain/NEAT MPS 143813
2005 09 23.31049 00 04 53.44 +01 45 22.0 18.2 R 699 – Lowell Observatory-LONEOS MPS 142210
2005 09 23.32158 00 04 52.90 +01 45 20.1 19.1 R 644 – Palomar Mountain/NEAT MPS 143813
2005 09 23.33800 00 04 51.99 +01 45 16.8   699 – Lowell Observatory-LONEOS MPS 142210
2005 09 23.36552 00 04 50.45 +01 45 12.4   699 – Lowell Observatory-LONEOS MPS 142210
2005 09 23.39303 00 04 48.98 +01 45 07.8   699 – Lowell Observatory-LONEOS MPS 142210
2005 09 25.29111 00 03 10.04 +01 39 36.6 18.3 V 703 – Catalina Sky Survey MPS 142607
2005 09 25.29699 00 03 09.79 +01 39 35.6 18.3 V 703 – Catalina Sky Survey MPS 142607
2005 09 25.30289 00 03 09.46 +01 39 34.4 18.2 V 703 – Catalina Sky Survey MPS 142607
2005 09 25.30880 00 03 09.10 +01 39 34.3 18.4 V 703 – Catalina Sky Survey MPS 142607
2005 09 29.17731 23 59 48.54 +01 28 11.3 18.4 R 699 – Lowell Observatory-LONEOS MPS 142607
2005 09 29.20010 23 59 47.30 +01 28 07.8   699 – Lowell Observatory-LONEOS MPS 142607
2005 09 29.22291 23 59 46.06 +01 28 03.1   699 – Lowell Observatory-LONEOS MPS 142607
2005 10 07.22137 23 53 10.71 +01 05 35.7 19.7   704 – Lincoln Laboratory ETS, New Mexico MPS 143813
2005 10 07.23219 23 53 10.21 +01 05 33.3 19.6   704 – Lincoln Laboratory ETS, New Mexico MPS 143813
2005 10 07.24298 23 53 09.61 +01 05 31.5 19.7   704 – Lincoln Laboratory ETS, New Mexico MPS 143813
2005 10 12.238747 23 49 29.842 +00 53 25.21 18.89 V 645 – Apache Point-Sloan Digital Sky Survey MPS 389861
2005 10 12.242219 23 49 29.698 +00 53 24.73 19.69   645 – Apache Point-Sloan Digital Sky Survey MPS 389861
2005 10 13.14642 23 48 53.13 +00 51 27.4 19.2 V 691 – Steward Observatory, Kitt Peak-Spacewatch MPS 143813
2005 10 13.16189 23 48 52.48 +00 51 25.7 19.2 V 691 – Steward Observatory, Kitt Peak-Spacewatch MPS 143813
2005 10 13.17736 23 48 51.83 +00 51 23.4 19.2 V 691 – Steward Observatory, Kitt Peak-Spacewatch MPS 143813
2005 10 20.246057 23 44 41.661 +00 39 03.51 19.23 V 645 – Apache Point-Sloan Digital Sky Survey MPS 389861
2005 10 20.249529 23 44 41.551 +00 39 03.22 19.99   645 – Apache Point-Sloan Digital Sky Survey MPS 389861
2005 10 20.32305 23 44 39.24 +00 38 57.4 18.9 R 644 – Palomar Mountain/NEAT MPS 150555
2005 10 20.34445 23 44 38.58 +00 38 55.9 19.1 R 644 – Palomar Mountain/NEAT MPS 150555
2005 10 20.36570 23 44 37.88 +00 38 54.1 19.0 R 644 – Palomar Mountain/NEAT MPS 150555
2005 10 21.260027 23 44 11.689 +00 37 46.15 19.37 V 645 – Apache Point-Sloan Digital Sky Survey MPS 389861
2005 10 21.263499 23 44 11.586 +00 37 45.91 20.39   645 – Apache Point-Sloan Digital Sky Survey MPS 389861
2005 10 23.223017 23 43 18.348 +00 35 38.94 19.21 V 645 – Apache Point-Sloan Digital Sky Survey MPS 389861
2005 10 23.226489 23 43 18.254 +00 35 38.74 20.09   645 – Apache Point-Sloan Digital Sky Survey MPS 389861
